Regional Weather Roundup
Issued by NWS Charleston, SC

Current Version | Previous Version | Text Only | Print | Product List | Glossary Off
Versions: 1 2 3 4 5 6 7 8 9 10 11 12 13 14 15 16 17 18 19 20 21 22 23 24 25 26 27 28 29 30 31 32 33 34 35 36 37 38 39 40 41 42 43 44 45 46 47 48 49 50
000 ASUS42 KCHS 191910 RWRCHS REGIONAL WEATHER ROUNDUP NATIONAL WEATHER SERVICE CHARLESTON SC 300 PM EDT FRI SEP 19 2014 NOTE: "FAIR" INDICATES FEW OR NO CLOUDS BELOW 12,000 FEET WITH NO SIGNIFICANT WEATHER AND/OR OBSTRUCTIONS TO VISIBILITY. NOT ALL STATIONS ARE QUALITY CONTROLLED BY THE NATIONAL WEATHER SERVICE. USE DATA WITH CAUTION...ESPECIALLY DEWPOINT OBSERVATIONS. SCZ027-030-031-034>040-042>050-192000- ...SOUTH CAROLINA... CITY SKY/WX TMP DP RH WIND PRES REMARKS N CHARLESTON LGT RAIN 75 71 87 NE12 30.06S FOG WATERFRONT PRK N/A 81 N/A N/A E23 N/A FORT JOHNSON NOT AVBL MOUNT PLEASANT FAIR 81 72 74 E9G18 30.07S JOHNS ISLAND PTCLDY 81 79 94 E16G25 30.05F PINOPOLIS N/A 77 72 83 SE2 29.99F MONCKS CORNER N/A 73 73 100 SE6 30.08F SUMMERVILLE LGT RAIN 72 72 100 E5 30.08F BEAUFORT MCAS PTSUNNY 82 70 66 E14G24 30.04S BEAUFORT ARPT FAIR 81 72 74 E16G25 30.03S HILTON HEAD IS MOSUNNY 81 72 74 NE10G16 30.04F GEORGETOWN NOT AVBL WALTERBORO HVY RAIN 72 N/A N/A NE9 30.07R ORANGEBURG PTSUNNY 82 67 60 E10 30.07F BARNWELL CLOUDY 79 72 78 N10 30.07F AIKEN FAIR 79 70 73 E8 30.12F MANNING CLOUDY 72 70 94 E10G17 30.10R KINGSTREE NOT AVBL COLUMBIA PTSUNNY 79 66 64 NE8 30.08F SUMTER PTSUNNY 84 64 51 E10 30.08F FLORENCE PTSUNNY 83 64 52 E15G21 30.10F MYRTLE BEACH PTSUNNY 81 68 65 E17G26 30.09F N MYRTLE BEACH CLOUDY 75 66 73 E17G28 30.10S $$ GAZ063-065-086>088-099>101-113>116-118-119-134-136>141-150-192000- ...GEORGIA... CITY SKY/WX TMP DP RH WIND PRES REMARKS SAVANNAH ARPT CLOUDY 82 70 66 E9 30.03S HUNTER AAF CLOUDY 79 72 78 E12G20 30.01S FORT STEWART CLOUDY 79 69 70 VRB3 30.01F STATESBORO NOT AVBL SYLVANIA CLOUDY 86 75 71 E8 30.04S HX 95 CLAXTON FAIR 88 72 58 E12 30.01F HX 94 THOMSON MOSUNNY 81 72 74 E8 30.12F AUGUSTA-BUSH PTSUNNY 80 68 66 NE7 30.07F AUGUSTA-DANIEL MOSUNNY 81 68 64 E10 30.08F SWAINSBORO FAIR 86 72 62 E7 30.03F HX 92 VIDALIA PTSUNNY 84 72 65 NE8 30.02S ALMA CLOUDY 77 69 76 CALM 30.00F WAYCROSS CLOUDY 88 74 64 E6 29.99F HX 96 JESUP CLOUDY 79 72 78 E9 30.03S BRUNSWICK CLOUDY 84 70 61 E10 30.01R SAINT SIMONS CLOUDY 83 70 64 E10 30.00S $$ SCZ027-028-034-036>038-045-046-048>050-GAZ119-141-192000- ...LAKE AND SUPPLEMENTAL COASTAL OBSERVATIONS... STATION/POSITION TIME TEMP WIND PRES WAVE SWELL AIR SEA DIR/SP/G HT/PER HT/PER/DIR (UTC) (F) (DEG/KT/KT) (MB) (FT/S) (FT/S/D) UPR LAKE MARION NOT AVBL WINYAH BAY 1800 79 60/ 15 1018.0S LAKE MURRAY 1800 74 20/ 2/ 3 1019.0F ACE BASIN NERRS 1800 84 100/ 6 1018.0S FORT PULASKI 1900 80 60/ 14/ 15 1017.0F SAPELO ISLAND 1800 84 70/ 8 1017.0S $$ ANZ835-935-AMZ111-154-330-350-352-354-374-450-454-472-192000- ...C-MAN AND BUOY OBSERVATIONS... STATION/POSITION TIME TEMP WIND PRES WAVE SWELL AIR SEA DIR/SP/G HT/PER HT/PER/DIR (UTC) (F) (DEG/KT/KT) (MB) (FT/S) (FT/S/D) FOLLY BEACH CMAN 1800 78 80/ 20/ 23 1018.4F BUOY 41004 1900 78 82 90/ 23/ 27 1016.6F 5/ 6 2/ 9 BUOY 41008 1900 80 84 60/ 19/ 25 1015.9F 3/10 2/100/10 5E ST. MARYS GA 1900 84 N/A 2/10 FRYING PAN BUOY NOT AVBL BUOY 41025 1900 78 60/ 17/ 21 1020.8F 5/ 7 2/ 50/10 CAPE LOOKOUT NC 1800 73 90/ 22/ 33 1021.0R BUOY 41002 1837 79 82 70/ 14/ 17 1017.8F 4/ 5 2/ 90/ 8 BUOY 41010 1900 83 85 70/ 12/ 14 1014.2F 3/11 2/ 50/11 BUOY 41012 NOT AVBL ST AUGUSTINE FL 1900 81 120/ 10/ 11 1015.9F CAPERS NEARSHORE 1800 77 130/ 23/ 25 N/A FRIPP NEARSHORE NOT AVBL $$

USA.gov is the U.S. government's official web portal to all federal, state and local government web resources and services.